SCP
0 0 0 0 0 1 1 1 1 1 1 1 1 0 0 0 0 0 0 0 0 0 0 0 0 0 0 0 0 0 0 0 0 0 0 0 0 0 0 0 0 0 0
0 0 0 0 0 1 1 1 1 1 1 1 1 0 0 0 0 0 0 0 0 0 0 0 0 0 0 0 0 0 0 0 0 0 0 0 0 0 0 0 0 0 0
0 0 0 0 0 0 0 0 0 0 1 1 1 0 0 0 0 0 0 0 0 0 0 0 0 0 0 0 0 0 0 0 0 0 0 0 0 0 0 0 0 0 0
0 0 0 0 0 0 0 0 0 0 0 0 0 0 0 0 0 0 0 0 0 0 0 0 0 0 0 0 0 0 0 0 0 0 0 0 0 0 0 0 0 0 0
0 0 0 0 0 0 0 0 0 0 0 0 0 0 0 0 0 0 0 0 0 0 0 0 0 0 0 0 0 0 0 0 0 0 0 0 0 0 0 0 0 0 0
0 0 0 0 0 0 0 0 0 0 0 0 0 0 0 0 0 0 0 0 0 0 0 0 0 0 0 0 0 0 0 0 0 0 0 0 0 0 0 0 0 0 0
0 0 0 0 0 0 0 0 0 0 0 0 0 0 0 0 0 0 0 0 0 0 0 0 0 0 0 0 0 0 0 0 0 0 0 0 0 0 0 0 0 0 0
0 0 0 0 0 0 0 0 0 0 0 0 0 0 0 0 0 0 0 0 0 0 0 0 0 0 0 0 0 0 0 0 0 0 0 0 0 0 0 0 0 0 0
0 0 0 0 0 0 0 0 0 0 0 0 0 0 0 0 0 0 0 0 0 0 0 0 0 0 0 0 0 0 0 0 0 0 0 0 0 0 0 0 0 0 0
0 0 0 0 0 0 0 0 0 0 0 0 0 0 0 0 0 0 0 0 0 0 0 0 0 0 0 0 0 0 0 0 0 0 0 0 0 0 0 0 0 0 0
0 0 0 0 0 0 0 0 0 0 0 0 0 0 0 0 0 0 0 0 0 0 0 0 0 0 0 0 0 0 0 0 0 0 0 0 0 0 0 0 0 0 0
0 0 0 0 0 0 0 0 0 0 0 0 0 0 0 0 0 0 0 0 0 0 0 0 0 0 0 0 0 0 0 0 0 0 0 0 0 0 0 0 0 0 0
0 0 0 0 0 0 0 0 0 0 0 0 0 0 0 0 0 0 0 0 0 0 0 0 0 0 0 0 0 0 0 0 0 0 0 0 0 0 0 0 0 0 0
0 0 0 0 0 0 0 0 0 0 0 0 0 0 0 0 0 0 0 0 0 0 0 0 0 0 0 0 0 0 0 0 0 0 0 0 0 0 0 0 0 0 0
0 0 0 0 0 0 0 0 0 0 0 0 0 0 0 0 0 0 0 0 0 0 0 0 0 0 0 0 0 0 0 0 0 0 0 0 0 0 0 0 0 0 0
0 0 0 0 0 0 0 0 0 0 0 0 0 0 0 0 0 0 0 0 0 0 0 0 0 0 0 0 0 0 0 0 0 0 0 0 0 0 0 0 0 0 0
0 0 0 0 0 0 0 0 0 0 0 0 0 0 0 0 0 0 0 0 0 0 0 0 0 0 0 0 0 0 0 0 0 0 0 0 0 0 0 0 0 0 0
0 0 0 0 0 0 0 0 0 0 0 0 0 0 0 0 0 0 0 0 0 0 0 0 0 0 0 0 0 0 0 0 0 0 0 0 0 0 0 0 0 0 0
0 0 0 0 0 0 0 0 0 0 0 0 0 0 0 0 0 0 0 0 0 0 0 0 0 0 0 0 0 0 0 0 0 0 0 0 0 0 0 0 0 0 0
0 0 0 0 0 0 0 0 0 0 0 0 0 0 0 0 0 0 0 0 0 0 0 0 0 0 0 0 0 0 0 0 0 0 0 0 0 0 0 0 0 0 0
0 0 0 0 0 0 0 0 0 0 0 0 0 0 0 0 0 0 0 0 0 0 0 0 0 0 0 0 0 0 0 0 0 0 0 0 0 0 0 0 0 0 0
0 0 0 0 0 0 0 0 0 0 0 0 0 0 0 0 0 0 0 0 0 0 0 0 0 0 0 0 0 0 0 0 0 0 0 0 0 0 0 0 0 0 0
0 0 0 0 0 0 0 0 0 0 0 0 0 0 0 0 0 0 0 0 0 0 0 0 0 0 0 0 0 0 0 0 0 0 0 0 0 0 0 0 0 0 0
0 0 0 0 0 0 0 0 0 0 0 0 0 0 0 0 0 0 0 0 0 0 0 0 0 0 0 0 0 0 0 0 0 0 0 0 0 0 0 0 0 0 0
0 0 0 0 0 0 0 0 0 0 0 0 0 0 0 0 0 0 0 0 0 0 0 0 0 0 0 0 0 0 0 0 0 0 0 0 0 0 0 0 0 0 0
0 0 0 0 0 0 0 0 0 0 0 0 0 0 0 0 0 0 0 0 0 0 0 0 0 0 0 0 0 0 0 0 0 0 0 0 0 0 0 0 0 0 0
Wind_Speed
1 1 1 1 2 2 2 2 2 2 3 3 3 3 3 3 3 3 3 3 3 3 3 3 3 3 2 2 2 2 2 2 5 5 3 3 3 4 4 4 4 4 5
1 1 1 1 2 2 2 2 2 2 2 3 3 3 3 3 3 3 3 3 4 4 4 4 4 3 3 3 2 3 3 3 4 6 5 4 4 4 4 4 4 4 4
1 2 1 1 1 1 2 2 1 1 2 2 3 3 3 3 3 3 3 4 4 4 4 4 4 4 4 3 3 3 3 3 3 4 5 4 3 3 4 4 5 4 5
1 1 1 1 1 1 1 1 1 1 1 2 2 2 3 3 3 3 3 3 4 4 4 4 4 5 5 4 4 4 3 3 3 4 5 4 4 3 3 4 5 4 5
1 1 1 1 1 1 1 1 1 1 1 1 1 1 2 2 3 3 4 4 4 4 4 4 5 5 6 5 4 4 4 4 3 4 4 4 4 3 3 3 5 5 6
1 1 1 1 1 1 1 1 1 1 1 1 1 2 2 2 4 5 4 3 4 4 4 4 4 5 5 7 8 7 7 5 5 5 5 6 6 5 4 3 4 4 5
1 1 1 1 1 0 0 0 1 1 1 1 2 2 2 3 5 6 6 4 4 4 4 4 4 4 5 5 7 8 8 9 9 6 7 7 7 5 4 5 5 5 6
1 1 1 0 0 0 1 1 1 1 1 1 2 2 2 3 5 5 6 4 4 4 4 4 5 5 4 5 5 5 5 6 8 7 7 7 6 5 5 5 5 4 5
1 0 0 0 0 0 1 1 1 1 1 1 1 1 2 3 5 5 4 3 3 4 4 4 4 5 7 7 5 5 6 6 7 9 10 9 9 8 5 1 2 2 4
1 1 1 0 1 1 1 1 1 1 1 1 1 1 2 2 4 5 4 2 3 3 3 3 5 6 7 7 5 5 6 5 4 4 6 6 6 5 6 4 3 3 3
1 1 1 1 1 1 1 1 0 1 1 1 1 1 2 2 4 5 4 2 2 3 3 3 4 7 8 8 7 5 7 5 3 3 4 3 3 2 2 2 3 3 4
1 1 1 1 1 0 1 1 0 1 1 1 1 2 2 2 3 4 5 5 4 3 3 3 4 7 8 8 6 6 7 4 2 2 3 3 3 3 2 2 3 3 4
1 1 1 1 1 1 1 1 0 1 1 1 2 2 2 1 2 4 5 6 6 4 3 6 7 7 7 5 6 7 4 2 2 3 3 3 3 2 2 2 2 2 3
1 1 1 1 1 1 1 1 1 1 2 2 2 2 2 2 2 2 2 3 4 4 3 3 5 6 5 4 3 3 2 2 3 3 3 2 2 1 2 1 2 2 2
1 1 1 1 1 1 1 1 2 2 2 3 3 2 2 3 4 5 3 2 2 3 3 2 1 2 2 2 2 2 2 2 2 3 2 2 2 2 2 1 1 1 2
1 1 1 1 1 1 1 2 3 3 4 5 4 4 3 5 6 6 6 6 6 5 3 1 2 2 3 3 3 3 2 2 3 2 2 2 3 3 2 1 1 2 2
2 2 1 1 1 1 1 2 2 3 4 4 5 5 6 6 6 6 6 6 5 4 2 2 2 2 3 3 3 3 3 3 2 2 3 3 3 3 2 2 2 2 2
2 2 2 2 2 2 2 2 2 2 3 3 4 6 6 6 6 6 5 3 2 2 2 2 3 3 3 3 3 3 3 2 2 2 3 3 3 2 2 2 2 2 2
2 2 2 2 2 2 2 2 2 3 3 3 3 3 4 5 5 5 3 1 2 3 3 3 3 3 3 3 3 3 3 3 3 3 3 3 3 2 3 3 3 3 2
2 2 2 2 2 2 2 2 2 3 3 3 3 3 2 2 2 3 2 2 3 3 3 3 3 3 3 3 3 3 3 3 3 3 3 3 3 2 3 3 3 3 2
1 2 2 2 2 2 2 3 3 3 3 4 4 4 5 3 3 4 3 3 3 4 4 4 4 4 3 3 3 3 4 4 3 3 3 3 3 2 2 3 3 3 2
1 2 2 2 2 2 3 3 3 3 4 4 4 4 5 3 3 3 3 4 4 4 4 4 4 4 3 4 4 4 4 4 4 4 3 3 2 3 3 3 3 2 2
2 2 2 2 2 3 3 3 3 3 3 3 3 3 3 3 3 4 4 4 4 4 4 4 4 4 4 4 4 4 5 5 4 4 4 3 3 3 3 3 4 3 3
2 2 2 2 2 2 3 3 3 3 3 3 3 3 4 4 4 4 4 4 4 4 4 3 4 6 7 5 4 4 5 5 5 4 5 4 4 3 3 3 4 4 4
2 2 2 2 2 2 3 3 3 3 3 3 3 3 3 3 4 4 4 3 4 4 5 5 4 5 7 8 7 6 7 8 7 4 4 4 5 5 4 4 4 4 4
2 2 2 2 2 2 3 3 3 3 3 3 3 3 3 4 4 4 4 4 4 4 5 5 5 6 7 7 7 8 8 8 7 6 5 4 5 5 4 4 4 4 4
Wind_Direction
119 123 131 148 153 152 163 175 178 175 174 177 180 181 186 192 192 194 205 196 201 215 221 216 225 223 227 232 235 239 243 242 262 283 290 291 283 285 295 293 294 294 297
111 114 116 115 128 146 162 166 163 173 181 179 177 179 194 203 198 202 210 211 208 213 220 220 227 225 228 233 234 238 241 241 251 275 288 291 285 283 288 293 299 300 295
73 95 102 113 128 140 148 149 154 164 173 173 179 187 194 202 206 211 217 217 219 222 221 222 228 221 229 236 240 242 247 254 251 267 281 290 291 298 303 299 299 296 295
89 100 112 132 139 139 140 140 149 159 173 173 188 196 196 202 207 211 222 228 229 230 228 226 228 224 227 230 236 241 249 254 260 266 276 285 288 296 298 300 305 303 299
100 108 107 79 81 100 121 133 146 164 187 182 189 198 203 212 213 215 224 227 231 239 240 235 233 232 238 238 242 238 237 244 256 262 270 282 280 290 287 290 291 306 300
118 118 84 87 94 104 116 123 153 185 191 189 204 203 221 237 240 238 238 233 231 238 245 246 248 240 244 251 255 253 247 243 247 250 261 265 271 274 286 286 291 302 298
100 100 102 114 127 135 146 154 201 216 207 212 222 222 238 250 250 250 248 244 235 238 243 248 255 254 248 249 256 258 255 254 252 248 252 256 265 259 262 268 269 278 279
95 84 71 87 142 205 212 217 243 241 232 237 234 237 248 260 258 258 256 250 247 242 239 242 250 256 257 257 252 256 261 261 261 254 251 258 260 257 246 254 262 274 284
62 17 330 250 249 260 251 260 266 271 268 258 246 236 249 268 263 262 262 253 256 256 252 248 250 254 262 266 259 262 272 274 275 271 272 272 273 274 271 270 270 285 292
345 329 318 280 238 245 256 270 285 263 254 263 265 259 256 270 273 271 266 254 260 268 267 260 254 259 264 264 252 251 262 272 280 289 284 284 277 269 263 243 235 253 283
348 348 331 316 289 279 299 295 272 257 255 255 268 284 280 279 281 276 276 268 263 269 269 268 266 274 275 274 271 257 263 278 270 266 271 276 280 276 271 265 254 247 254
11 354 327 313 297 303 302 295 265 213 227 252 263 274 278 285 288 288 288 285 287 265 265 269 271 279 283 285 282 279 283 287 267 266 270 272 275 277 280 279 274 267 261
359 327 308 310 311 293 249 249 259 224 233 253 255 264 275 282 287 289 289 289 289 283 272 275 281 283 287 285 281 283 283 261 255 263 269 273 276 274 280 291 294 291 292
275 295 299 291 309 320 292 255 236 226 234 248 254 262 271 276 280 285 283 289 290 288 284 281 285 287 287 287 284 277 260 252 253 261 270 273 277 274 267 271 281 298 305
257 264 282 265 260 264 270 262 263 255 244 247 244 243 251 263 272 280 287 281 279 273 288 276 269 274 284 284 278 264 261 260 260 264 262 271 273 270 272 266 267 272 268
244 256 258 259 252 253 270 298 294 282 287 283 277 273 271 279 289 284 287 290 293 293 293 268 268 266 267 272 274 275 262 257 261 265 260 256 260 262 270 269 258 257 264
223 240 250 254 250 250 251 259 295 310 297 293 292 292 289 292 290 287 289 290 293 299 277 259 261 266 270 273 270 268 269 270 266 258 258 258 258 258 257 258 253 261 263
228 234 238 244 245 249 247 249 251 270 295 296 293 291 296 295 292 291 293 298 284 289 259 255 259 263 266 270 273 277 279 278 271 265 263 259 256 257 254 252 250 249 254
229 236 239 241 242 245 247 247 246 250 259 276 292 294 297 297 296 297 301 254 249 259 259 255 253 256 261 264 267 270 272 270 268 266 264 260 253 249 253 254 254 249 241
236 248 254 243 240 240 239 239 243 247 253 259 265 274 285 287 282 282 268 253 250 256 257 258 257 251 252 254 256 258 263 265 268 267 263 259 255 247 249 250 248 247 244
238 250 249 245 239 239 240 240 243 244 249 256 260 267 277 258 254 255 253 248 246 253 257 259 257 253 249 249 251 251 253 257 256 258 261 260 252 248 249 249 244 238 238
235 243 240 238 245 247 249 248 247 248 249 255 265 271 275 265 251 251 254 254 252 250 251 255 257 254 249 246 245 246 249 251 249 247 249 252 253 249 245 243 241 232 224
237 246 244 244 244 248 253 253 251 247 249 251 255 261 258 254 253 253 257 261 262 260 255 250 256 262 260 253 245 240 242 244 243 238 239 242 240 239 240 238 234 229 226
245 238 241 249 252 249 254 259 258 252 249 251 252 254 256 256 256 259 261 264 264 263 259 256 256 259 264 265 259 250 247 246 241 232 227 229 235 236 235 237 237 229 223
251 241 243 247 247 252 259 264 264 261 259 259 260 264 267 268 268 269 269 269 270 270 270 266 263 263 264 264 262 257 255 254 246 229 217 218 223 227 226 230 235 233 221
256 252 255 252 251 255 259 265 268 269 268 269 269 270 271 271 272 272 273 272 276 276 275 271 265 267 271 270 265 265 261 254 241 227 213 211 216 222 219 223 226 228 217